Regional Weather Roundup
Issued by NWS

Home | Current Version | Previous Version | Graphics & Text | Print | Product List | Glossary On
Versions: 1 2 3 4 5 6 7 8 9 10 11 12 13 14 15 16 17 18 19 20 21 22 23 24 25 26 27 28 29 30 31 32 33 34 35 36 37 38 39 40 41 42 43 44 45 46 47 48 49 50
737
ASUS45 KTFX 060610
RWRMT
MONTANA REGIONAL WEATHER ROUNDUP
NATIONAL WEATHER SERVICE GREAT FALLS MT
1100 PM MST FRI FEB 05 2016

NOTE: "FAIR" INDICATES FEW OR NO CLOUDS BELOW 12000 FEET WITH NO
SIGNIFICANT WEATHER AND/OR OBSTRUCTIONS TO VISIBILITY.

MTZ001>007-043-060700-
WEST OF THE DIVIDE

CITY           SKY/WX    TMP DP  RH WIND       PRES   REMARKS
KALISPELL      CLOUDY    36  29  75 SW9       30.09F WCI  29
MISSOULA       MOCLDY    29  25  85 CALM      30.19F
BUTTE          CLOUDY    34  19  54 SW7       30.20F WCI  28
MULLAN PASS    CLOUDY    29  26  89 S12G21    30.08F WCI  19
ANACONDA         N/A     34  19  55 S23G30    30.17F WCI  22
DEER LODGE       N/A     34  25  69 CALM      30.18F
HAMILTON         N/A     39  25  56 S16       30.19F WCI  30
LIBBY            N/A     28  28 100 N5        30.08F
$$

MTZ008-052>055-060700-
SOUTHWEST MONTANA

CITY           SKY/WX    TMP DP  RH WIND       PRES   REMARKS
BOZEMAN        CLOUDY    22  15  75 S6        30.23S WCI  14
DILLON         CLOUDY    25  15  66 SW24      30.26F WCI   9
ENNIS          CLEAR     23  16  74 S22G31    30.34F WCI   8
THREE FORKS      N/A     33   1  25 SW30      30.18F WCI  19
TWIN BRIDGES     N/A     23  11  60 E7        30.23S WCI  15
$$

MTZ009-010-012-014-046-048-049-054-060700-
EAST SLOPES AND CENTRAL MONTANA

CITY           SKY/WX    TMP DP  RH WIND       PRES   REMARKS
CUT BANK       MOCLDY    43  23  45 W38G52    29.86F
GREAT FALLS    PTCLDY    44  21  40 SW31G37   30.00S
MALMSTROM AFB  CLOUDY    44  21  40 SW29G37   30.00F
HELENA         CLOUDY    32  24  72 CALM      30.13F
CHOTEAU          N/A     46  16  29 SW14G24   29.97F
CONRAD           N/A     41  24  51 S5        29.97F
$$

MTZ011-013-016-021-045-047-050-051-060700-
NORTH CENTRAL MONTANA

CITY           SKY/WX    TMP DP  RH WIND       PRES   REMARKS
HAVRE          CLOUDY    42  27  55 SW22G30   29.90F
LEWISTOWN      CLOUDY    38  23  55 SW21      30.01F WCI  28
N BAR RANCH      N/A     45  18  33 VRB5G12   29.98F
CHINOOK          N/A     48  25  40 SW23G32   29.87F
$$

MTZ017>020-022>027-061-062-060700-
NORTHEAST MONTANA

CITY           SKY/WX    TMP DP  RH WIND       PRES   REMARKS
GLASGOW        CLOUDY    34  26  72 W8        29.90F WCI  27
JORDAN           N/A     36  27  69 W12       29.96F WCI  28
SIDNEY         CLEAR     30  23  74 SW14      29.92F WCI  20
WOLF POINT     CLOUDY    34  26  72 CALM      29.91F
PLENTYWOOD       N/A     30  23  74 SE3       29.86F
POPLAR           N/A     30  25  80 CALM      29.91F
$$

MTZ028>42-056>058-060700-
SOUTHCENTRAL AND SOUTHEAST MONTANA

CITY           SKY/WX    TMP DP  RH WIND       PRES   REMARKS
BAKER          CLOUDY    34  21  59 SW16      30.01F WCI  24
BILLINGS       CLOUDY    36  14  40 SW21      30.07F WCI  25
LIVINGSTON     CLOUDY    34  16  47 SW49G63   30.13F WCI  17
MILES CITY     CLOUDY    36  22  56 W5        30.02F
FORSYTH          N/A     39  18  41 SW9       30.03F
LAUREL           N/A     35  13  40 SW16      30.05F WCI  25
ROUNDUP          N/A     39  19  45 SW15      29.93F WCI  30
$$

REGIONAL REPORTS...DAKOTAS

CITY           SKY/WX    TMP DP  RH WIND       PRES   REMARKS
WILLISTON      CLOUDY    27  22  81 S7        29.90F WCI  19
MINOT          CLOUDY    34  23  64 SW10      29.90F WCI  26
DICKINSON      CLOUDY    31  21  66 SW15      29.95F WCI  20
BEACH            N/A     34  23  64 SW16      29.99F WCI  23
CROSBY           N/A     25  25 100 S10       29.87F WCI  15
TIOGA            N/A     27  27 100 SW15      29.92F WCI  15
WATFORD CITY     N/A     28  25  86 SW9       29.92F WCI  20
BISMARCK       CLEAR     24  19  81 E3        30.01F
GRAND FORKS    CLOUDY    22  17  81 S9        30.03F WCI  12
FARGO          CLOUDY    21  18  88 S8        30.09F WCI  11
BUFFALO SD       N/A     31  20  63 W13       29.98F WCI  21
RAPID CITY     CLEAR     22  15  75 CALM      30.13F
$$

REGIONAL REPORTS...WYOMING/IDAHO/WASHINGTON

CITY           SKY/WX    TMP DP  RH WIND       PRES   REMARKS
GILLETTE       CLOUDY    27  12  53 SW20      30.12F WCI  13
SHERIDAN       CLOUDY    25  13  60 CALM      30.09F
BUFFALO WY     CLOUDY    27  11  51 SW8       30.11F WCI  19
CODY           CLOUDY    37  16  41 W12G32    30.15F WCI  30
YELLOWSTONE LA   N/A     18  15  88 CALM      30.38R
IDAHO FALLS    CLOUDY    20  16  84 MISG      30.49S
SALMON         CLOUDY    10   9  92 SE3       30.37F
BOISE          PTCLDY    36  29  75 SE10      30.43R WCI  28
SPOKANE        CLOUDY    43  33  68 S15G22    30.07S
$$

REGIONAL REPORTS...ALBERTA

CITY           SKY/WX    TMP DP  RH WIND       PRES   REMARKS
EDMONTON       PTCLDY    36  27  69 SW7       29.47F WCI  30
CALGARY        MOCLDY    39  25  56 S6        29.63F
LETHBRIDGE     CLEAR     46  21  36 SW21G32   29.79F
MEDICINE HAT   CLOUDY    46  27  46 SW30G43   29.73R
WATERTON GATE    N/A     46  19  34 SW41G71     N/A
CARDSTON         N/A     45  19  36 SW6G21      N/A
$$

REGIONAL REPORTS...SASKATCHEWAN

CITY           SKY/WX    TMP DP  RH WIND       PRES   REMARKS
SWIFT CURRENT  CLOUDY    41  27  56 W25G32    29.71F
REGINA         MOCLDY    21  19  93 SE9       29.76F WCI  11
SASKATOON      MOCLDY    28  23  80 S7        29.66F WCI  21
VAL MARIE        N/A     39  27  60 W13         N/A  WCI  32
ROCKGLEN         N/A     32  25  74 W17         N/A  WCI  21
$$




USA.gov is the U.S. government's official web portal to all federal, state and local government web resources and services.